sat.trackr.live / text

‹ back to catalog

STARLINK-6089

NORAD 56096 · 2023-046D

PAYLOAD ACTIVE UNKNOWN

§ Identity

Operator
Country
US
Launch date
2023-03-29
Launch site
AFETR
Launch vehicle
Mass (kg)
RCS (m²)

Purposes: comms

External: N2YO · Heavens-Above · Gunter

§ Orbital elements

Epoch: 2026-09-19T02:33:09.063360Z

Period
94.27 min
Inclination
43.0012°
Eccentricity
0.0001279
Mean motion
15.27576592 rev/d
Perigee alt
482.2 km
Apogee alt
483.9 km
Semi-major
6,861.2 km
B*
9.2378e-6
RAAN
149.1121°
Arg perigee
238.3548°
Mean anomaly
121.7179°
Rev number
19,161

§ Raw data

STARLINK-60891 56096U 23046D   26262.10635490 -.00000008  00000+0  92378-5 0  99992 56096  43.0012 149.1121 0001279 238.3548 121.7179 15.27576592191614

JSON: /api/v1/satellites/56096 · /tle

For live sub-satellite position, see the globe view (requires WebGL).

§ Visibility from observer

Set your observer location to see the next 7 days of passes ≥ 10°. The values pass through the URL so the page stays shareable.

No JS? Fill the form by hand. The geolocation button needs JavaScript.